STARLINK-30162, 57446

Orbit data source: Space-Track

STARLINK-30162, 57446 is a payload satellite owned by SpaceX/Seattle (US) in LEO that was launched on Mon, 24 Jul 2023 UTC via an FALCON 9 launch vehicle from the Air Force Eastern Test Range (AFETR). Payload-class satellites include a variety of spacecraft equipped with specific instruments for various scientific and technological missions. These include communications satellites like Starlink; space stations such as the ISS; scientific satellites like the Hubble; Earth observation satellites from companies like Planet Labs, Umbra, and HawkEye 360; GPS; miniature CubeSats for education and research; and military/defense satellites.

Loading next visibility...
Identifier
57446, 2023-105S
Orbit
LEO
Country
Flag of USUS
Related business
Manufacturer
SpaceX/Seattle
Mission
Operational Commercial Communications
Bus & Motor
STARLINK V2M, Unknown motor
Mass
730 kg wet, ~700 kg dry
Launch date (UTC)
2023-07-24 (3 years ago)
Launch vehicle
FALCON 9
Launch site
Air Force Eastern Test Range (AFETR)
Object type
Payload
Rocket body
Debris
Shape & HBR
Box + 2 Pan, 17.7 m
Radar Cross Section
33.884 m², Large (>1 m²)

Expand to show TLE details & history
Last TLE update: 2 days ago

TLE from 2 days ago
0 STARLINK-30162
1 57446U 23105S   26171.29169477 -.00001195  00000-0 -33908-4 0  9994
2 57446  43.0004  29.3584 0001712 265.3807  94.6849 15.27563977161406
Epoch: 2026-06-20T07:00Z
TLE epoch observation values (Epoch: 2026-06-20T07:00:02.428Z)
Latitude
-0.00001°
Longitude
15.83985°
Altitude
482.969 km
Speed
7.626 km/s
True Right ascension
01h 57m 26s
True Declination
0° 00' 00"
Sunlit
Object was in daylight at epoch
Visualization orbit readout
Latitude
Unknown
Longitude
Unknown
Altitude
Unknown
Speed
Unknown
Apparent Right ascension
Unknown
Apparent Declination
Unknown
Sunlit
N/A
Visualization observer readout
Local Sidereal Time
21:29:56
Azimuth
Unknown
Elevation
Unknown
Doppler factor
Unknown
Orbital elements
Apogee altitude
486.217 km
Perigee altitude
483.867 km
Semi-major axis
6,863.179 km
Eccentricity
0.00017
Inclination
43.0004°
RAAN
29.3584°
Arg. of periapsis
265.3807°
True anomaly
94.70445°
Mean anomaly
94.6849°
Eccentric anomaly
94.69468°
Mean motion
3.81729 °/min
Orbital period
94.31 mins
BSTAR
-0.000033908
Loading maneuver chart data...
Computing Atmospheric mass density...
Loading historical data...
Loading historical data...
Loading historical data...
Loading historical data...
Loading historical data...
Loading historical data...
Loading historical data...

Documentation

Showing up to 5 results
|